{"data":{"norad_id":49446,"intl_designator":"2021-104AQ","name":"STARLINK-3099","alt_names":[],"object_type":"PAYLOAD","status":"ACTIVE","operator":null,"country":"US","launch_date":"2021-11-13","launch_site_code":"AFETR","launch_vehicle":null,"mission":null,"orbit_class":"UNKNOWN","rcs_meters":null,"size_class":null,"mass_kg":null,"dimensions":null,"purposes":["comms"],"wikipedia_slug":null,"has_3d_model":false,"image_url":null,"decayed_at":null,"tle_current":{"epoch":"2026-05-25T04:25:19.180128Z","epoch_age_seconds":66027,"freshness":"FRESH","line1":"1 49446U 21104AQ  26145.18424977 -.00000248  00000+0  25256-5 0  9994","line2":"2 49446  53.2126 225.7225 0001079 102.3419 257.7694 15.08835058250460","mean_motion":15.08835058,"eccentricity":0.0001079,"inclination_deg":53.2126,"raan_deg":225.7225,"arg_perigee_deg":102.3419,"mean_anomaly_deg":257.7694,"bstar":2.5256e-6,"rev_number":25046,"period_min":95.437867271507,"perigee_km":539.01205379838,"apogee_km":540.50493564614,"semimajor_km":6917.8954947223,"source":"CELESTRAK","updated_at":"2026-05-25T13:38:16.802858Z"}}}